User: anonymous   Login
Location: Bergnershof
(48.9468°N, 10.9431°E)
Time: 01:58:11
(UTC+00:00)
Language:

Okean 1 - Orbit

View from above orbital plane
View from above orbital plane
View from above satellite
View from above satellite

Ground track
Ground track

The orbit data is extracted from the following two-line orbital elements,

1 19274U 88056A   21136.44436285  .00000804  00000-0  52060-4 0  9998
2 19274  82.5053 200.5789 0013530 111.6091 248.6579 15.06708697768898
Epoch (UTC): 16 May 2021 10:39:52
Eccentricity: 0.0013530
inclination: 82.5053°
perigee height: 537 km
apogee height: 555 km
right ascension of ascending node: 200.5789°
argument of perigee: 111.6091°
revolutions per day: 15.06708697
mean anomaly at epoch: 248.6579°
orbit number at epoch: 76889

The dashed part of the orbit path shows where the satellite is in the earth's shadow,  

DLR